Weather History for KBCE - March, 2014

Change the Weather History Date:

Monday, March 17, 2014

  Actual Average Record
Temperature  
Mean Temperature 38 °F -  
Max Temperature 57 °F 44 °F 69 °F (2007)
Min Temperature 21 °F 18 °F -5 °F (1980)
Degree Days  
Heating Degree Days 27    
Moisture  
Dew Point 13 °F    
Average Humidity 44    
Maximum Humidity 89    
Minimum Humidity 13    
Precipitation  
Precipitation 0.00 in - - ()
Sea Level Pressure  
Sea Level Pressure 29.74 in    
Wind  
Wind Speed 12 mph (WNW)    
Max Wind Speed 36 mph    
Max Gust Speed 51 mph    
Visibility 10 miles    
Events      
Averages and records for this station are not official NWS values.
T = Trace of Precipitation, MM = Missing Value Source: NWS Daily Summary

Daily Weather History Graph

Daily Weather History Graph

Search for Another Location

Airport or City:

Trip Planner

Search our weather history database for the weather conditions in past years. The results will help you decide how hot, cold, wet, or windy it might be!

Date:

Astronomy

Mar. 17, 2014 Rise Set
Actual Time 7:36 AM MDT 7:37 PM MDT
Civil Twilight 7:10 AM MDT 8:03 PM MDT
Nautical Twilight 6:39 AM MDT 8:34 PM MDT
Astronomical Twilight 6:09 AM MDT 9:05 PM MDT
Moon 8:56 PM MDT (3/17) 7:55 AM MDT (3/17)
Length of Visible Light 12h 53m
Length of Day
12h 01m
Full, 99% of the Moon is Illuminated
Mar 17
Full
Mar 23
Last Quarter
Mar 30
New
Apr 7
First Quarter
Apr 15
Full

Hourly Weather History & Observations

Time (MDT) Temp. Windchill Dew Point Humidity Pressure Visibility Wind Dir Wind Speed Gust Speed Precip Events Conditions
12:53 AM 26.1 °F 20.5 °F 19.9 °F 78% 30.09 in 10.0 mi WSW 4.6 mph - N/A   Clear
1:53 AM 25.0 °F 18.1 °F 19.0 °F 78% 30.04 in 10.0 mi West 5.8 mph - N/A   Clear
2:53 AM 24.1 °F 18.2 °F 19.0 °F 81% 30.00 in 10.0 mi West 4.6 mph - N/A   Clear
3:53 AM 21.9 °F 15.7 °F 19.0 °F 89% 29.96 in 10.0 mi SSW 4.6 mph - N/A   Clear
4:53 AM 23.0 °F 17.0 °F 19.0 °F 85% 29.91 in 10.0 mi SW 4.6 mph - N/A   Clear
5:53 AM 23.0 °F - 17.1 °F 78% 29.86 in 10.0 mi Calm Calm - N/A   Clear
6:53 AM 30.9 °F 24.3 °F 16.0 °F 54% 29.79 in 10.0 mi East 6.9 mph - N/A   Clear
7:53 AM 39.9 °F 36.7 °F 12.9 °F 33% 29.74 in 10.0 mi Variable 4.6 mph - N/A   Clear
8:53 AM 44.1 °F 36.5 °F 14.0 °F 30% 29.75 in 10.0 mi WSW 17.3 mph 20.7 mph N/A   Clear
9:53 AM 46.9 °F - 14.0 °F 27% 29.73 in 10.0 mi WSW 19.6 mph - N/A   Clear
10:53 AM 52.0 °F - 15.1 °F 23% 29.69 in 10.0 mi WSW 21.9 mph 27.6 mph N/A   Clear
11:53 AM 53.1 °F - 16.0 °F 23% 29.65 in 10.0 mi WSW 19.6 mph 33.4 mph N/A   Partly Cloudy
12:53 PM 55.0 °F - 9.0 °F 16% 29.62 in 10.0 mi West 35.7 mph 50.6 mph N/A   Clear
1:53 PM 55.0 °F - 10.9 °F 17% 29.60 in 10.0 mi West 27.6 mph 46.0 mph N/A   Scattered Clouds
2:53 PM 55.0 °F - 6.1 °F 14% 29.56 in 10.0 mi WNW 33.4 mph 47.2 mph N/A   Scattered Clouds
3:53 PM 54.0 °F - 3.0 °F 13% 29.55 in 10.0 mi WNW 23.0 mph 40.3 mph N/A   Clear
4:53 PM 52.0 °F - 10.0 °F 19% 29.54 in 10.0 mi NW 28.8 mph 38.0 mph N/A   Clear
5:53 PM 46.9 °F - 15.1 °F 28% 29.60 in 10.0 mi WNW 23.0 mph 42.6 mph N/A   Partly Cloudy
6:53 PM 39.9 °F 29.5 °F 18.0 °F 41% 29.61 in 10.0 mi NW 24.2 mph 39.1 mph N/A   Clear
7:53 PM 35.1 °F 25.5 °F 16.0 °F 46% 29.64 in 10.0 mi NNW 15.0 mph - N/A   Clear
8:53 PM 28.0 °F 13.6 °F 9.0 °F 45% 29.69 in 8.0 mi North 24.2 mph 32.2 mph N/A   Overcast
9:53 PM 26.1 °F 15.0 °F 8.1 °F 47% 29.69 in 10.0 mi North 12.7 mph - N/A   Clear
10:53 PM 21.9 °F 11.0 °F 5.0 °F 48% 29.70 in 10.0 mi North 10.4 mph - N/A   Clear
11:53 PM 23.0 °F 11.1 °F 1.0 °F 39% 29.70 in 10.0 mi North 12.7 mph - N/A   Clear